516P/PanSTARRS (2019)

Japanese version
Home page
Updated on June 4, 2026

---------------------------------------------------------------------

* Profile

Designation 516P/2018 X4

* Orbital Elements

                    Epoch = 2019 Oct.  4.0 TT
     T = 2019 Sept.16.71137 TT        Peri. =  69.87947
     e = 0.3400392                    Node  = 106.62532 2000.0
     q = 2.3497080 AU                 Incl. =   4.09227
       a =  3.5603753 AU   n = 0.14671023   P =   6.72 years

* Magnitudes Graph

        m1 = 14.5 + 5 log d + 10.0 log r

---------------------------------------------------------------------

The orbital elements are printed on CBET 5659.
The magnitudes graphs are made with Comet for Windows.

---------------------------------------------------------------------

Copyright(C) Seiichi Yoshida (comet@aerith.net). All rights reserved.